Regional Weather Roundup
Issued by NWS

Home | Current Version | Previous Version | Graphics & Text | Print | Product List | Glossary On
Versions: 1 2 3 4 5 6 7 8 9 10 11 12 13 14 15 16 17 18 19 20 21 22 23 24 25 26 27 28 29 30 31 32 33 34 35 36 37 38 39 40 41 42 43 44 45 46 47 48 49 50
000
ASUS43 KMKX 211500
RWRWI

WISCONSIN REGIONAL WEATHER ROUNDUP
NATIONAL WEATHER SERVICE MILWAUKEE/SULLIVAN WI
900 AM CST FRI NOV 21 2014

NOTE: "FAIR" INDICATES FEW OR NO CLOUDS BELOW 12,000 FEET WITH NO
SIGNIFICANT WEATHER AND/OR OBSTRUCTIONS TO VISIBILITY.

WIZ001-002-006>008-014>016-023>028-211600-
NORTHWEST WISCONSIN

CITY           SKY/WX    TMP DP  RH WIND       PRES   REMARKS
SUPERIOR ARPT  MOSUNNY    8   2  78 CALM      30.16F
ASHLAND        PTSUNNY   13   0  56 S16       30.18F WCI  -3
HAYWARD        MOSUNNY   10   3  73 S13       30.17F WCI  -5
SIREN          SUNNY      9   5  84 S6        30.18S WCI  -1
CUMBERLAND     MOSUNNY    7   3  85 S15       30.19S WCI -11
RICE LAKE      MOSUNNY    6   3  86 SE6       30.23S WCI  -4
CHETEK         MOSUNNY    3   0  84 E5        30.23S WCI  -6
LADYSMITH      MOSUNNY    5   2  86 S6        30.24S WCI  -6
EAU CLAIRE     NOT AVBL
MENOMONIE      MOSUNNY    8   4  84 E6        30.26S WCI  -2
NEW RICHMOND   MOSUNNY   10   5  81 S13       30.20F WCI  -5
OSCEOLA        MOSUNNY   10   5  79 S10       30.23S WCI  -3
$$

WIZ003>005-009-010-017-018-211600-
NORTH CENTRAL WISCONSIN

CITY           SKY/WX    TMP DP  RH WIND       PRES   REMARKS
MANITOWISH WTR CLOUDY     5   0  77 S9        30.18F WCI  -9
ARBOR VITAE    MOSUNNY    6   0  75 S6        30.19F WCI  -4
WOODRUFF       MOSUNNY    6   0  75 S6        30.19F WCI  -4
RHINELANDER    CLOUDY     8  -1  66 SW10      30.21F WCI  -6
EAGLE RIVER    MOSUNNY    7  -1  71 SW5       30.19F WCI  -2
LAND O LAKES   CLOUDY     5   1  84 S5        30.19F WCI  -4
PHILLIPS       PTSUNNY    8   2  76 S9        30.20S WCI  -5
TOMAHAWK       CLOUDY     4   0  83 CALM      30.24S
MEDFORD        SUNNY      7   3  83 S9        30.23S WCI  -7
MERRILL        PTSUNNY    3  -1  81 CALM      30.26F
$$

WIZ029-030-035-036-043>047-211600-
CENTRAL WISCONSIN

CITY           SKY/WX    TMP DP  RH WIND       PRES   REMARKS
WAUSAU         FAIR       6   1  80 SE6       30.28S WCI  -4
MOSINEE        SUNNY      3   1  92 SE6       30.29S WCI  -8
MARSHFIELD     MOSUNNY    7   2  80 S5        30.28S WCI  -2
STEVENS POINT  MOSUNNY    6   0  79 S6        30.32S WCI  -5
WAUPACA        SUNNY     10   3  74 S3        30.38R
WAUTOMA        NOT AVBL
WISC RAPIDS    MOSUNNY    8   1  73 S8        30.33F WCI  -4
CAMP DOUGLAS   NOT AVBL
$$

WIZ011>013-019>022-031-037>040-048>050-211600-
NORTHEAST WISCONSIN

CITY           SKY/WX    TMP DP  RH WIND       PRES   REMARKS
ANTIGO         MOSUNNY    2  -2  84 S5        30.26S WCI  -8
SHAWANO        MOSUNNY   11   3  70 S3        30.35F
OCONTO         SUNNY     10   2  69 W5        30.37S WCI   2
STURGEON BAY   SUNNY     16   7  67 SW9       30.35S WCI   4
GREEN BAY      MOSUNNY   13   4  67 S8        30.38S WCI   2
MANITOWOC      NOT AVBL
APPLETON       MOSUNNY   10   1  67 VRB6      30.37R WCI   1
CLINTONVILLE   MOSUNNY   10   1  67 S5        30.36S WCI   2
OSHKOSH        SUNNY     13   4  67 S8        30.38R WCI   2
$$

WIZ032>034-041-042-053>061-211600-
SOUTHWEST WISCONSIN

CITY           SKY/WX    TMP DP  RH WIND       PRES   REMARKS
LA CROSSE      SUNNY     11   4  73 SE7       30.32F WCI   0
SPARTA         MOSUNNY    2  -2  82 CALM      30.33F
VIROQUA        SUNNY     13   5  70 SE10      30.29F WCI   0
BOSCOBEL       SUNNY     11   5  77 N3        30.38F
PRAIRIE DU CHI MOSUNNY   12   5  74 CALM      30.37S
PLATTEVILLE    MOSUNNY   12   7  79 SE10      30.36S WCI  -1
$$

WIZ056-057-062-063-064-067-068-211600-
SOUTH CENTRAL WISCONSIN

CITY           SKY/WX    TMP DP  RH WIND       PRES   REMARKS
REEDSBURG      MOSUNNY   10   4  75 CALM      30.35S
BARABOO/DELLS  MOSUNNY   14   5  67 S8        30.35F WCI   3
LONE ROCK      NOT AVBL
MINERAL POINT  SUNNY     12   7  79 SE8       30.34S WCI   1
MADISON        SUNNY     16   6  65 S9        30.38F WCI   4
MIDDLETON      SUNNY     17   4  58 S12       30.37F WCI   4
WATERTOWN      SUNNY     13   7  76 S3        30.39F
MONROE         SUNNY     16   9  73 S12       30.37S WCI   3
JANESVILLE     SUNNY     16   9  73 CALM      30.40S
$$

WIZ051-052-058>065-066-070>072-211600-
SOUTHEAST WISCONSIN

CITY           SKY/WX    TMP DP  RH WIND       PRES   REMARKS
MILWAUKEE      SUNNY     17   2  51 SW6       30.42S WCI   9
WAUKESHA       SUNNY     12   1  62 SW3       30.41R
MILWAUKEE/TIMM NOT AVBL
RACINE         SUNNY     17   2  51 W5        30.45R WCI  10
BURLINGTON     SUNNY     10   4  76 CALM      30.42R
KENOSHA        SUNNY     17   6  62 W5        30.43R WCI  10
FOND DU LAC    SUNNY     13   4  67 S8        30.39R WCI   2
SHEBOYGAN      SUNNY     14   4  64 SW6       30.40R WCI   5
WEST BEND      SUNNY     14   3  62 S3        30.39R
JUNEAU         SUNNY     11   3  69 S6        30.40R WCI   2
$$

LSZ147-162-211600-
LAKE SUPERIOR

STATION/POSITION TIME  TEMP    WIND        PRES    WAVE
                       AIR SEA DIR/SP/G            HT/PER
                 (UTC) (F)     (DEG/KT/KT) (MB)    (FT/S)
DEVILS ISLAND    1400   16     200/ 10/ 16 1023.2F
PORT WING        1400   12     210/  7/ 11 1022.0S
SAXON HARBOR     1400   11     200/  9/ 13 1022.4
$$

LMZ867-665-643>646-211600-
LAKE MICHIGAN

STATION/POSITION TIME  TEMP    WIND        PRES    WAVE
                       AIR SEA DIR/SP/G            HT/PER
                 (UTC) (F)     (DEG/KT/KT) (MB)    (FT/S)
CHAMBERS ISLAND  1400   16     230/  6/ 11 1027.4R
N MID LAKE BUOY  1350   22 42  290/ 14/ 19 1028.4R   2/ 4
NORTHPORT PIER   1408   19     240/  3/  7 1027.4R
SISTER BAY       1428          250/ 15/ 18   N/A
ALGOMA LAKESHORE 1328          290/  4/  5   N/A
KEWAUNEE LAKESHO 1400    9     280/  5/  6 1027.6R
SHEBOYGAN LAKESH 1400   12 34  260/  7/  8 1031.0R
PORT WASHINGTON  1440   17     270/  5/ 11 1030.8R
ATWATER BUOY     1400   16     260/ 12/ 14 1030.1R
MILWAUKEE LAKESH 1400   15     270/  4/  6   N/A
S MID LAKE BUOY  1350   24 42  280/  4/  6 1031.4R   3/ 6
KENOSHA   LAKESH 1400   14     270/  6/  7 1030.1R
$$

TC  - TEMPERATURE IN CELSIUS
VSB - VISIBILITY IN STATUTE MILES
WCI - WIND CHILL INDEX
HX  - HEAT INDEX




USA.gov is the U.S. government's official web portal to all federal, state and local government web resources and services.